Time,TemperatureF,DewpointF,PressureIn,WindDirection,WindDirectionDegrees,WindSpeedMPH,WindSpeedGustMPH,Humidity,HourlyPrecipIn,Conditions,Clouds,dailyrainin,SoftwareType,DateUTC
2013-04-03 00:01:00,40.6,24.3,30.21,North,355,1.2,1.2,52,0.00,CLR,,0.00,WeatherDisplay:10.37,2013-04-03 05:01:00,
2013-04-03 00:06:00,40.5,24.2,30.21,North,355,0.0,0.0,52,0.00,CLR,,0.00,WeatherDisplay:10.37,2013-04-03 05:06:00,
2013-04-03 00:11:00,40.4,24.1,30.21,North,355,2.3,2.3,52,0.00,CLR,,0.00,WeatherDisplay:10.37,2013-04-03 05:11:00,
2013-04-03 00:16:00,40.5,24.2,30.21,North,355,2.0,2.0,52,0.00,CLR,,0.00,WeatherDisplay:10.37,2013-04-03 05:16:00,
2013-04-03 00:21:00,40.4,24.1,30.21,North,355,2.0,2.0,52,0.00,CLR,,0.00,WeatherDisplay:10.37,2013-04-03 05:21:00,
2013-04-03 00:26:00,40.3,24.1,30.21,North,355,1.2,1.2,52,0.00,CLR,,0.00,WeatherDisplay:10.37,2013-04-03 05:26:00,
2013-04-03 00:31:00,40.2,24.0,30.21,North,355,3.5,3.5,52,0.00,CLR,,0.00,WeatherDisplay:10.37,2013-04-03 05:31:00,
2013-04-03 00:36:00,40.1,23.9,30.22,North,355,3.5,3.5,52,0.00,CLR,,0.00,WeatherDisplay:10.37,2013-04-03 05:36:00,
2013-04-03 00:41:00,40.0,24.2,30.22,North,355,2.3,0.0,53,0.00,CLR,,0.00,WeatherDisplay:10.37,2013-04-03 05:41:00,
2013-04-03 00:46:00,39.9,24.1,30.21,North,355,0.0,0.0,53,0.00,CLR,,0.00,WeatherDisplay:10.37,2013-04-03 05:46:00,
2013-04-03 00:51:00,39.7,24.0,30.21,North,355,0.0,0.0,53,0.00,CLR,,0.00,WeatherDisplay:10.37,2013-04-03 05:51:00,
2013-04-03 00:56:00,39.5,23.8,30.21,North,355,0.0,0.0,53,0.00,CLR,,0.00,WeatherDisplay:10.37,2013-04-03 05:56:00,
2013-04-03 01:01:00,39.3,24.0,30.21,North,355,0.0,0.0,54,0.00,CLR,,0.00,WeatherDisplay:10.37,2013-04-03 06:01:00,
2013-04-03 01:06:00,39.2,23.9,30.20,North,355,0.0,0.1,54,0.00,CLR,,0.00,WeatherDisplay:10.37,2013-04-03 06:06:00,
2013-04-03 01:11:00,39.1,23.8,30.20,North,355,0.0,0.0,54,0.00,CLR,,0.00,WeatherDisplay:10.37,2013-04-03 06:11:00,
2013-04-03 01:16:00,39.1,23.8,30.21,North,355,1.2,1.2,54,0.00,CLR,,0.00,WeatherDisplay:10.37,2013-04-03 06:16:00,
2013-04-03 01:21:00,38.9,23.7,30.21,North,355,0.0,0.0,54,0.00,CLR,,0.00,WeatherDisplay:10.37,2013-04-03 06:21:00,
2013-04-03 01:26:00,38.9,24.1,30.21,North,355,0.0,0.0,55,0.00,CLR,,0.00,WeatherDisplay:10.37,2013-04-03 06:26:00,
2013-04-03 01:31:00,38.9,23.7,30.21,North,355,0.0,0.0,54,0.00,CLR,,0.00,WeatherDisplay:10.37,2013-04-03 06:31:00,
2013-04-03 01:36:00,38.8,24.0,30.21,North,355,0.0,0.0,55,0.00,CLR,,0.00,WeatherDisplay:10.37,2013-04-03 06:36:00,
2013-04-03 01:41:00,38.8,24.0,30.21,North,355,0.0,0.0,55,0.00,CLR,,0.00,WeatherDisplay:10.37,2013-04-03 06:41:00,
2013-04-03 01:46:00,38.6,23.8,30.20,North,355,0.0,0.0,55,0.00,CLR,,0.00,WeatherDisplay:10.37,2013-04-03 06:46:00,
2013-04-03 01:51:00,38.4,23.6,30.20,North,355,0.0,0.0,55,0.00,CLR,,0.00,WeatherDisplay:10.37,2013-04-03 06:51:00,
2013-04-03 01:56:00,38.3,23.5,30.20,North,355,0.0,0.0,55,0.00,CLR,,0.00,WeatherDisplay:10.37,2013-04-03 06:56:00,
2013-04-03 02:01:00,38.3,23.5,30.20,North,355,0.0,0.0,55,0.00,CLR,,0.00,WeatherDisplay:10.37,2013-04-03 07:01:00,
2013-04-03 02:06:00,38.3,23.5,30.20,North,355,0.0,0.0,55,0.00,CLR,,0.00,WeatherDisplay:10.37,2013-04-03 07:06:00,
2013-04-03 02:11:00,38.2,23.4,30.20,North,355,0.0,0.0,55,0.00,CLR,,0.00,WeatherDisplay:10.37,2013-04-03 07:11:00,
2013-04-03 02:16:00,38.0,23.7,30.21,North,355,0.0,0.0,56,0.00,CLR,,0.00,WeatherDisplay:10.37,2013-04-03 07:16:00,
2013-04-03 02:21:00,37.9,23.6,30.21,North,355,0.0,0.0,56,0.00,CLR,,0.00,WeatherDisplay:10.37,2013-04-03 07:21:00,
2013-04-03 02:27:00,37.8,23.5,30.21,North,355,0.0,0.0,56,0.00,CLR,,0.00,WeatherDisplay:10.37,2013-04-03 07:27:00,
2013-04-03 02:32:00,37.8,23.5,30.21,North,355,0.0,0.0,56,0.00,CLR,,0.00,WeatherDisplay:10.37,2013-04-03 07:32:00,
2013-04-03 02:37:00,37.8,23.5,30.21,North,355,0.0,0.0,56,0.00,CLR,,0.00,WeatherDisplay:10.37,2013-04-03 07:37:00,
2013-04-03 02:42:00,37.7,23.4,30.21,North,355,0.0,0.0,56,0.00,CLR,,0.00,WeatherDisplay:10.37,2013-04-03 07:42:00,
2013-04-03 02:47:00,37.5,23.6,30.21,North,355,0.0,0.0,57,0.00,CLR,,0.00,WeatherDisplay:10.37,2013-04-03 07:47:00,
2013-04-03 02:52:00,37.4,23.5,30.21,North,355,0.0,0.0,57,0.00,CLR,,0.00,WeatherDisplay:10.37,2013-04-03 07:52:00,
2013-04-03 02:57:00,37.4,23.5,30.21,North,355,0.0,0.0,57,0.00,CLR,,0.00,WeatherDisplay:10.37,2013-04-03 07:57:00,
2013-04-03 03:02:00,37.4,23.5,30.21,North,355,2.0,2.0,57,0.00,CLR,,0.00,WeatherDisplay:10.37,2013-04-03 08:02:00,
2013-04-03 03:07:00,37.3,23.4,30.21,North,355,1.2,0.0,57,0.00,CLR,,0.00,WeatherDisplay:10.37,2013-04-03 08:07:00,
2013-04-03 03:12:00,37.3,23.0,30.21,North,355,2.3,2.3,56,0.00,CLR,,0.00,WeatherDisplay:10.37,2013-04-03 08:12:00,
2013-04-03 03:17:00,37.4,23.1,30.21,North,355,0.0,0.0,56,0.00,CLR,,0.00,WeatherDisplay:10.37,2013-04-03 08:17:00,
2013-04-03 03:22:00,37.3,23.0,30.21,North,355,2.3,2.3,56,0.00,CLR,,0.00,WeatherDisplay:10.37,2013-04-03 08:22:00,
2013-04-03 03:28:00,37.3,23.0,30.21,North,355,1.2,1.2,56,0.00,CLR,,0.00,WeatherDisplay:10.37,2013-04-03 08:28:00,
2013-04-03 03:33:00,37.3,23.0,30.21,North,355,0.0,0.0,56,0.00,CLR,,0.00,WeatherDisplay:10.37,2013-04-03 08:33:00,
2013-04-03 03:38:00,37.3,23.0,30.21,North,355,1.2,1.2,56,0.00,CLR,,0.00,WeatherDisplay:10.37,2013-04-03 08:38:00,
2013-04-03 03:43:00,37.1,23.3,30.22,North,355,1.2,1.2,57,0.00,CLR,,0.00,WeatherDisplay:10.37,2013-04-03 08:43:00,
2013-04-03 03:48:00,36.7,23.3,30.22,North,355,1.0,1.0,58,0.00,CLR,,0.00,WeatherDisplay:10.37,2013-04-03 08:48:00,
2013-04-03 03:53:00,36.5,23.1,30.21,North,355,1.2,1.2,58,0.00,CLR,,0.00,WeatherDisplay:10.37,2013-04-03 08:53:00,
2013-04-03 03:58:00,36.5,24.7,30.21,North,355,0.0,0.0,62,0.00,CLR,,0.00,WeatherDisplay:10.37,2013-04-03 08:58:00,
2013-04-03 04:03:00,36.4,23.4,30.21,North,355,2.3,2.3,59,0.00,CLR,,0.00,WeatherDisplay:10.37,2013-04-03 09:03:00,
2013-04-03 04:08:00,36.2,23.6,30.21,North,355,0.0,0.0,60,0.00,CLR,,0.00,WeatherDisplay:10.37,2013-04-03 09:08:00,
2013-04-03 04:13:00,36.0,23.8,30.22,North,355,0.0,0.0,61,0.00,CLR,,0.00,WeatherDisplay:10.37,2013-04-03 09:13:00,
2013-04-03 04:18:00,35.7,23.9,30.22,North,355,1.2,1.2,62,0.00,CLR,,0.00,WeatherDisplay:10.37,2013-04-03 09:18:00,
2013-04-03 04:23:00,35.6,23.9,30.22,North,355,1.2,1.2,62,0.00,CLR,,0.00,WeatherDisplay:10.37,2013-04-03 09:23:00,
2013-04-03 04:28:00,35.5,24.1,30.22,North,355,2.3,2.3,63,0.00,CLR,,0.00,WeatherDisplay:10.37,2013-04-03 09:28:00,
2013-04-03 04:33:00,35.5,24.1,30.23,North,355,1.2,1.2,63,0.00,CLR,,0.00,WeatherDisplay:10.37,2013-04-03 09:33:00,
2013-04-03 04:38:00,35.5,24.1,30.23,North,355,2.3,2.3,63,0.00,CLR,,0.00,WeatherDisplay:10.37,2013-04-03 09:38:00,
2013-04-03 04:43:00,35.5,24.1,30.23,North,355,2.3,0.0,63,0.00,CLR,,0.00,WeatherDisplay:10.37,2013-04-03 09:43:00,
2013-04-03 04:48:00,35.5,24.1,30.23,North,355,3.0,3.0,63,0.00,CLR,,0.00,WeatherDisplay:10.37,2013-04-03 09:48:00,
2013-04-03 04:53:00,35.4,24.4,30.23,North,355,3.5,3.5,64,0.00,CLR,,0.00,WeatherDisplay:10.37,2013-04-03 09:53:00,
2013-04-03 04:58:00,35.3,24.3,30.23,North,355,3.5,3.5,64,0.00,CLR,,0.00,WeatherDisplay:10.37,2013-04-03 09:58:00,
2013-04-03 05:03:00,35.2,24.2,30.24,North,355,3.5,3.5,64,0.00,CLR,,0.00,WeatherDisplay:10.37,2013-04-03 10:03:00,
2013-04-03 05:08:00,35.1,24.5,30.24,North,355,3.5,3.5,65,0.00,CLR,,0.00,WeatherDisplay:10.37,2013-04-03 10:08:00,
2013-04-03 05:13:00,34.8,24.2,30.24,North,355,3.5,3.5,65,0.00,CLR,,0.00,WeatherDisplay:10.37,2013-04-03 10:13:00,
2013-04-03 05:18:00,34.7,24.5,30.24,North,355,3.5,3.5,66,0.00,CLR,,0.00,WeatherDisplay:10.37,2013-04-03 10:18:00,
2013-04-03 05:23:00,34.6,24.4,30.24,North,355,3.5,3.5,66,0.00,CLR,,0.00,WeatherDisplay:10.37,2013-04-03 10:23:00,
2013-04-03 05:28:00,34.5,24.3,30.24,North,355,3.5,3.5,66,0.00,CLR,,0.00,WeatherDisplay:10.37,2013-04-03 10:28:00,
2013-04-03 05:33:00,34.4,24.2,30.24,North,355,3.5,3.5,66,0.00,CLR,,0.00,WeatherDisplay:10.37,2013-04-03 10:33:00,
2013-04-03 05:38:00,34.4,24.2,30.24,North,355,3.5,3.5,66,0.00,CLR,,0.00,WeatherDisplay:10.37,2013-04-03 10:38:00,
2013-04-03 05:43:00,34.4,24.2,30.24,North,355,3.5,3.5,66,0.00,CLR,,0.00,WeatherDisplay:10.37,2013-04-03 10:43:00,
2013-04-03 05:48:00,34.4,24.2,30.24,North,355,5.8,5.8,66,0.00,CLR,,0.00,WeatherDisplay:10.37,2013-04-03 10:48:00,
2013-04-03 05:53:00,34.4,24.2,30.24,North,355,4.0,4.0,66,0.00,CLR,,0.00,WeatherDisplay:10.37,2013-04-03 10:53:00,
2013-04-03 05:58:00,34.4,24.2,30.24,North,355,3.5,3.5,66,0.00,CLR,,0.00,WeatherDisplay:10.37,2013-04-03 10:58:00,
2013-04-03 06:03:00,34.4,24.2,30.24,North,355,4.6,4.6,66,0.00,CLR,,0.00,WeatherDisplay:10.37,2013-04-03 11:03:00,
2013-04-03 06:08:00,34.4,24.6,30.24,North,355,3.0,3.0,67,0.00,CLR,,0.00,WeatherDisplay:10.37,2013-04-03 11:08:00,
2013-04-03 06:13:00,34.3,24.5,30.25,North,355,4.0,4.0,67,0.00,CLR,,0.00,WeatherDisplay:10.37,2013-04-03 11:13:00,
2013-04-03 06:19:00,34.2,24.4,30.25,North,355,5.0,5.0,67,0.00,CLR,,0.00,WeatherDisplay:10.37,2013-04-03 11:19:00,
2013-04-03 06:24:00,34.2,24.0,30.25,North,355,3.5,3.5,66,0.00,CLR,,0.00,WeatherDisplay:10.37,2013-04-03 11:24:00,
2013-04-03 06:29:00,34.2,24.0,30.25,North,355,2.3,2.3,66,0.00,CLR,,0.00,WeatherDisplay:10.37,2013-04-03 11:29:00,
2013-04-03 06:34:00,34.2,24.0,30.25,North,355,4.0,4.0,66,0.00,CLR,,0.00,WeatherDisplay:10.37,2013-04-03 11:34:00,
2013-04-03 06:39:00,34.1,23.9,30.25,North,355,4.6,4.6,66,0.00,CLR,,0.00,WeatherDisplay:10.37,2013-04-03 11:39:00,
2013-04-03 06:44:00,34.1,23.9,30.25,North,355,3.5,3.5,66,0.00,CLR,,0.00,WeatherDisplay:10.37,2013-04-03 11:44:00,
2013-04-03 06:49:00,34.1,23.9,30.26,North,355,4.6,4.6,66,0.00,CLR,,0.00,WeatherDisplay:10.37,2013-04-03 11:49:00,
2013-04-03 06:54:00,34.1,23.9,30.26,North,355,2.3,2.3,66,0.00,CLR,,0.00,WeatherDisplay:10.37,2013-04-03 11:54:00,
2013-04-03 06:59:00,34.0,23.8,30.27,North,355,3.5,3.5,66,0.00,CLR,,0.00,WeatherDisplay:10.37,2013-04-03 11:59:00,
2013-04-03 07:04:00,33.9,23.7,30.27,North,355,3.5,3.5,66,0.00,CLR,,0.00,WeatherDisplay:10.37,2013-04-03 12:04:00,
2013-04-03 07:09:00,33.9,23.7,30.28,North,355,3.5,3.5,66,0.00,CLR,,0.00,WeatherDisplay:10.37,2013-04-03 12:09:00,
2013-04-03 07:14:00,33.9,23.7,30.28,North,355,2.3,2.3,66,0.00,CLR,,0.00,WeatherDisplay:10.37,2013-04-03 12:14:00,
2013-04-03 07:19:00,33.9,23.7,30.29,North,355,3.5,3.5,66,0.00,CLR,,0.00,WeatherDisplay:10.37,2013-04-03 12:19:00,
2013-04-03 07:24:00,34.0,23.8,30.29,North,355,3.5,3.5,66,0.00,CLR,,0.00,WeatherDisplay:10.37,2013-04-03 12:24:00,
2013-04-03 07:29:00,34.0,24.2,30.29,North,355,2.3,2.3,67,0.00,CLR,,0.00,WeatherDisplay:10.37,2013-04-03 12:29:00,
2013-04-03 07:34:00,34.1,23.9,30.29,North,355,3.5,3.5,66,0.00,CLR,,0.00,WeatherDisplay:10.37,2013-04-03 12:34:00,
2013-04-03 07:39:00,34.4,24.2,30.28,North,355,3.5,3.5,66,0.00,CLR,,0.00,WeatherDisplay:10.37,2013-04-03 12:39:00,
2013-04-03 07:44:00,34.4,24.2,30.28,North,355,3.5,3.5,66,0.00,CLR,,0.00,WeatherDisplay:10.37,2013-04-03 12:44:00,
2013-04-03 07:49:00,34.6,24.0,30.29,North,355,3.5,3.5,65,0.00,CLR,,0.00,WeatherDisplay:10.37,2013-04-03 12:49:00,
2013-04-03 07:54:00,34.9,23.9,30.29,North,355,4.6,4.6,64,0.00,CLR,,0.00,WeatherDisplay:10.37,2013-04-03 12:54:00,
2013-04-03 07:59:00,35.1,24.1,30.29,North,355,4.6,4.6,64,0.00,CLR,,0.00,WeatherDisplay:10.37,2013-04-03 12:59:00,
2013-04-03 08:04:00,35.3,24.0,30.29,North,355,6.0,6.0,63,0.00,CLR,,0.00,WeatherDisplay:10.37,2013-04-03 13:04:00,
2013-04-03 08:09:00,35.5,23.8,30.29,North,355,8.1,8.1,62,0.00,CLR,,0.00,WeatherDisplay:10.37,2013-04-03 13:09:00,
2013-04-03 08:14:00,35.7,23.9,30.29,North,355,3.5,3.5,62,0.00,CLR,,0.00,WeatherDisplay:10.37,2013-04-03 13:14:00,
2013-04-03 08:19:00,35.9,23.7,30.29,North,355,4.6,4.6,61,0.00,CLR,,0.00,WeatherDisplay:10.37,2013-04-03 13:19:00,
2013-04-03 08:24:00,36.1,23.5,30.29,North,360,6.9,6.9,60,0.00,CLR,,0.00,WeatherDisplay:10.37,2013-04-03 13:24:00,
2013-04-03 08:29:00,36.3,23.3,30.29,North,5,10.4,10.4,59,0.00,CLR,,0.00,WeatherDisplay:10.37,2013-04-03 13:29:00,
2013-04-03 08:34:00,36.6,23.6,30.28,North,11,9.2,9.2,59,0.00,CLR,,0.00,WeatherDisplay:10.37,2013-04-03 13:34:00,
2013-04-03 08:39:00,37.2,23.8,30.27,NNE,13,10.4,10.4,58,0.00,CLR,,0.00,WeatherDisplay:10.37,2013-04-03 13:39:00,
2013-04-03 08:44:00,37.6,23.7,30.28,NNE,14,9.2,9.2,57,0.00,CLR,,0.00,WeatherDisplay:10.37,2013-04-03 13:44:00,
2013-04-03 08:49:00,38.1,23.8,30.27,NNE,15,5.8,5.8,56,0.00,CLR,,0.00,WeatherDisplay:10.37,2013-04-03 13:49:00,
2013-04-03 08:54:00,38.6,23.8,30.27,NNE,17,9.2,9.2,55,0.00,CLR,,0.00,WeatherDisplay:10.37,2013-04-03 13:54:00,
2013-04-03 08:59:00,39.0,22.8,30.28,NNE,22,10.4,10.4,52,0.00,CLR,,0.00,WeatherDisplay:10.37,2013-04-03 13:59:00,
2013-04-03 09:04:00,39.1,22.9,30.27,NNE,32,9.2,9.2,52,0.00,CLR,,0.00,WeatherDisplay:10.37,2013-04-03 14:04:00,
2013-04-03 09:09:00,39.5,23.3,30.28,NNE,33,9.2,9.2,52,0.00,CLR,,0.00,WeatherDisplay:10.37,2013-04-03 14:09:00,
2013-04-03 09:14:00,40.0,23.3,30.28,NE,48,10.4,10.4,51,0.00,CLR,,0.00,WeatherDisplay:10.37,2013-04-03 14:14:00,
2013-04-03 09:19:00,40.4,23.2,30.28,NE,51,6.9,6.9,50,0.00,CLR,,0.00,WeatherDisplay:10.37,2013-04-03 14:19:00,
2013-04-03 09:24:00,40.7,23.0,30.29,NE,51,9.2,9.2,49,0.00,CLR,,0.00,WeatherDisplay:10.37,2013-04-03 14:24:00,
2013-04-03 09:29:00,40.9,23.2,30.29,ESE,118,11.5,11.5,49,0.00,CLR,,0.00,WeatherDisplay:10.37,2013-04-03 14:29:00,
2013-04-03 09:34:00,40.9,22.7,30.29,SE,137,9.2,9.2,48,0.00,CLR,,0.00,WeatherDisplay:10.37,2013-04-03 14:34:00,
2013-04-03 09:39:00,41.0,22.8,30.28,ESE,106,3.5,3.5,48,0.00,CLR,,0.00,WeatherDisplay:10.37,2013-04-03 14:39:00,
2013-04-03 09:44:00,41.4,23.2,30.28,ESE,121,12.0,12.0,48,0.00,CLR,,0.00,WeatherDisplay:10.37,2013-04-03 14:44:00,
2013-04-03 09:49:00,41.8,23.5,30.28,ESE,120,5.0,5.0,48,0.00,CLR,,0.00,WeatherDisplay:10.37,2013-04-03 14:49:00,
2013-04-03 09:54:00,42.4,24.1,30.27,ESE,117,4.0,4.0,48,0.00,CLR,,0.00,WeatherDisplay:10.37,2013-04-03 14:54:00,
2013-04-03 09:59:00,42.7,23.8,30.27,SE,124,5.8,5.8,47,0.00,CLR,,0.00,WeatherDisplay:10.37,2013-04-03 14:59:00,
2013-04-03 10:04:00,43.3,24.4,30.27,ESE,117,4.0,4.0,47,0.00,CLR,,0.00,WeatherDisplay:10.37,2013-04-03 15:04:00,
2013-04-03 10:09:00,42.9,23.5,30.27,East,94,9.2,9.2,46,0.00,CLR,,0.00,WeatherDisplay:10.37,2013-04-03 15:09:00,
2013-04-03 10:14:00,42.6,23.2,30.27,East,86,9.0,9.0,46,0.00,CLR,,0.00,WeatherDisplay:10.37,2013-04-03 15:14:00,
2013-04-03 10:19:00,42.5,23.2,30.27,East,83,7.0,7.0,46,0.00,CLR,,0.00,WeatherDisplay:10.37,2013-04-03 15:19:00,
2013-04-03 10:24:00,42.8,23.4,30.27,East,83,3.5,3.5,46,0.00,CLR,,0.00,WeatherDisplay:10.37,2013-04-03 15:24:00,
2013-04-03 10:29:00,43.1,23.7,30.28,East,83,4.6,4.6,46,0.00,CLR,,0.00,WeatherDisplay:10.37,2013-04-03 15:29:00,
2013-04-03 10:34:00,43.7,24.2,30.27,East,88,10.4,10.4,46,0.00,CLR,,0.00,WeatherDisplay:10.37,2013-04-03 15:34:00,
2013-04-03 10:39:00,44.2,24.2,30.27,East,92,5.8,5.8,45,0.00,CLR,,0.00,WeatherDisplay:10.37,2013-04-03 15:39:00,
2013-04-03 10:44:00,44.5,24.5,30.27,East,88,9.2,9.2,45,0.00,CLR,,0.00,WeatherDisplay:10.37,2013-04-03 15:44:00,
2013-04-03 10:49:00,44.5,24.5,30.27,East,84,4.6,4.6,45,0.00,CLR,,0.00,WeatherDisplay:10.37,2013-04-03 15:49:00,
2013-04-03 10:54:00,44.6,24.5,30.27,ESE,103,5.8,5.8,45,0.00,CLR,,0.00,WeatherDisplay:10.37,2013-04-03 15:54:00,
2013-04-03 10:59:00,44.9,24.3,30.27,SE,140,11.5,11.5,44,0.00,CLR,,0.00,WeatherDisplay:10.37,2013-04-03 15:59:00,
2013-04-03 11:05:00,45.4,25.8,30.27,SE,134,3.5,3.5,46,0.00,CLR,,0.00,WeatherDisplay:10.37,2013-04-03 16:05:00,
2013-04-03 11:10:00,46.1,25.4,30.27,SE,131,4.0,4.0,44,0.00,CLR,,0.00,WeatherDisplay:10.37,2013-04-03 16:10:00,
2013-04-03 11:15:00,46.0,24.7,30.28,ESE,111,8.1,8.1,43,0.00,CLR,,0.00,WeatherDisplay:10.37,2013-04-03 16:15:00,
2013-04-03 11:20:00,45.8,24.5,30.28,ESE,103,7.0,7.0,43,0.00,CLR,,0.00,WeatherDisplay:10.37,2013-04-03 16:20:00,
2013-04-03 11:25:00,45.5,24.8,30.28,ESE,105,9.0,9.0,44,0.00,CLR,,0.00,WeatherDisplay:10.37,2013-04-03 16:25:00,
2013-04-03 11:30:00,45.9,24.6,30.28,East,96,9.2,9.2,43,0.00,CLR,,0.00,WeatherDisplay:10.37,2013-04-03 16:30:00,
2013-04-03 11:35:00,46.3,25.0,30.28,ESE,107,6.9,6.9,43,0.00,CLR,,0.00,WeatherDisplay:10.37,2013-04-03 16:35:00,
2013-04-03 11:40:00,46.5,24.6,30.27,ESE,106,4.6,4.6,42,0.00,CLR,,0.00,WeatherDisplay:10.37,2013-04-03 16:40:00,
2013-04-03 11:45:00,46.3,25.0,30.28,ESE,113,7.0,7.0,43,0.00,CLR,,0.00,WeatherDisplay:10.37,2013-04-03 16:45:00,
2013-04-03 11:50:00,46.4,25.1,30.28,ESE,109,6.0,6.0,43,0.00,CLR,,0.00,WeatherDisplay:10.37,2013-04-03 16:50:00,
2013-04-03 11:55:00,46.6,25.8,30.27,ESE,105,3.5,3.5,44,0.00,CLR,,0.00,WeatherDisplay:10.37,2013-04-03 16:55:00,
2013-04-03 12:00:00,47.0,25.1,30.27,ESE,105,11.5,11.5,42,0.00,CLR,,0.00,WeatherDisplay:10.37,2013-04-03 17:00:00,
2013-04-03 12:05:00,46.7,24.8,30.27,East,92,6.9,6.9,42,0.00,CLR,,0.00,WeatherDisplay:10.37,2013-04-03 17:05:00,
2013-04-03 12:10:00,46.7,24.2,30.27,East,94,6.9,6.9,41,0.00,CLR,,0.00,WeatherDisplay:10.37,2013-04-03 17:10:00,
2013-04-03 12:15:00,46.9,25.0,30.27,East,94,4.0,4.0,42,0.00,CLR,,0.00,WeatherDisplay:10.37,2013-04-03 17:15:00,
2013-04-03 12:20:00,47.3,24.8,30.27,East,98,6.0,6.0,41,0.00,CLR,,0.00,WeatherDisplay:10.37,2013-04-03 17:20:00,
2013-04-03 12:25:00,47.0,24.5,30.27,East,99,9.2,9.2,41,0.00,CLR,,0.00,WeatherDisplay:10.37,2013-04-03 17:25:00,
2013-04-03 12:30:00,47.0,25.1,30.27,ESE,102,4.6,4.6,42,0.00,CLR,,0.00,WeatherDisplay:10.37,2013-04-03 17:30:00,
2013-04-03 12:35:00,47.6,25.6,30.26,East,100,4.0,4.0,42,0.00,CLR,,0.00,WeatherDisplay:10.37,2013-04-03 17:35:00,
2013-04-03 12:40:00,48.3,24.5,30.26,East,97,5.8,5.8,39,0.00,CLR,,0.00,WeatherDisplay:10.37,2013-04-03 17:40:00,
2013-04-03 12:45:00,48.6,25.3,30.25,SE,133,3.5,3.5,40,0.00,CLR,,0.00,WeatherDisplay:10.37,2013-04-03 17:45:00,
2013-04-03 12:50:00,48.6,24.7,30.25,SE,126,6.9,6.9,39,0.00,CLR,,0.00,WeatherDisplay:10.37,2013-04-03 17:50:00,
2013-04-03 12:55:00,48.3,25.7,30.25,East,95,6.9,6.9,41,0.00,CLR,,0.00,WeatherDisplay:10.37,2013-04-03 17:55:00,
2013-04-03 13:00:00,48.1,24.9,30.25,East,94,3.5,3.5,40,0.00,CLR,,0.00,WeatherDisplay:10.37,2013-04-03 18:00:00,
2013-04-03 13:05:00,48.2,25.6,30.25,East,94,6.0,6.0,41,0.00,CLR,,0.00,WeatherDisplay:10.37,2013-04-03 18:05:00,
2013-04-03 13:11:00,48.4,25.2,30.25,East,94,6.0,6.0,40,0.00,CLR,,0.00,WeatherDisplay:10.37,2013-04-03 18:11:00,
2013-04-03 13:16:00,48.1,24.3,30.25,East,95,8.1,8.1,39,0.00,CLR,,0.00,WeatherDisplay:10.37,2013-04-03 18:16:00,
2013-04-03 13:21:00,48.5,25.2,30.25,East,94,3.5,3.5,40,0.00,CLR,,0.00,WeatherDisplay:10.37,2013-04-03 18:21:00,
2013-04-03 13:26:00,48.5,25.2,30.25,East,90,3.5,3.5,40,0.00,CLR,,0.00,WeatherDisplay:10.37,2013-04-03 18:26:00,
2013-04-03 13:31:00,48.9,25.6,30.25,East,90,4.6,4.6,40,0.00,CLR,,0.00,WeatherDisplay:10.37,2013-04-03 18:31:00,
2013-04-03 13:36:00,48.7,25.4,30.25,East,94,3.5,3.5,40,0.00,CLR,,0.00,WeatherDisplay:10.37,2013-04-03 18:36:00,
2013-04-03 13:41:00,48.4,25.2,30.25,East,96,9.2,9.2,40,0.00,CLR,,0.00,WeatherDisplay:10.37,2013-04-03 18:41:00,
2013-04-03 13:46:00,48.1,24.9,30.25,East,97,3.5,3.5,40,0.00,CLR,,0.00,WeatherDisplay:10.37,2013-04-03 18:46:00,
2013-04-03 13:51:00,48.1,25.5,30.25,East,98,5.0,5.0,41,0.00,CLR,,0.00,WeatherDisplay:10.37,2013-04-03 18:51:00,
2013-04-03 13:56:00,48.4,25.8,30.24,East,98,3.5,3.5,41,0.00,CLR,,0.00,WeatherDisplay:10.37,2013-04-03 18:56:00,
2013-04-03 14:01:00,48.6,25.9,30.24,East,98,1.2,1.2,41,0.00,CLR,,0.00,WeatherDisplay:10.37,2013-04-03 19:01:00,
2013-04-03 14:06:00,49.2,26.5,30.24,East,98,1.2,1.2,41,0.00,CLR,,0.00,WeatherDisplay:10.37,2013-04-03 19:06:00,
2013-04-03 14:12:00,49.9,27.7,30.24,East,98,3.5,3.5,42,0.00,CLR,,0.00,WeatherDisplay:10.37,2013-04-03 19:12:00,
2013-04-03 14:17:00,49.2,25.9,30.23,East,98,3.5,3.5,40,0.00,CLR,,0.00,WeatherDisplay:10.37,2013-04-03 19:17:00,
2013-04-03 14:22:00,49.0,26.9,30.23,East,98,3.5,3.5,42,0.00,CLR,,0.00,WeatherDisplay:10.37,2013-04-03 19:22:00,
2013-04-03 14:27:00,49.4,27.2,30.22,East,95,6.0,6.0,42,0.00,CLR,,0.00,WeatherDisplay:10.37,2013-04-03 19:27:00,
2013-04-03 14:32:00,49.2,27.1,30.22,East,89,3.5,3.5,42,0.00,CLR,,0.00,WeatherDisplay:10.37,2013-04-03 19:32:00,
2013-04-03 14:37:00,49.5,26.7,30.22,NE,52,3.5,3.5,41,0.00,CLR,,0.00,WeatherDisplay:10.37,2013-04-03 19:37:00,
2013-04-03 14:42:00,50.0,27.8,30.22,NE,51,4.6,4.6,42,0.00,CLR,,0.00,WeatherDisplay:10.37,2013-04-03 19:42:00,
2013-04-03 14:47:00,49.5,27.3,30.22,NE,48,4.6,4.6,42,0.00,CLR,,0.00,WeatherDisplay:10.37,2013-04-03 19:47:00,
2013-04-03 14:52:00,49.1,26.4,30.22,NE,48,1.2,1.2,41,0.00,CLR,,0.00,WeatherDisplay:10.37,2013-04-03 19:52:00,
2013-04-03 14:57:00,49.1,27.0,30.22,NE,47,5.8,5.8,42,0.00,CLR,,0.00,WeatherDisplay:10.37,2013-04-03 19:57:00,
2013-04-03 15:03:00,48.9,26.2,30.22,NE,46,6.9,6.9,41,0.00,CLR,,0.00,WeatherDisplay:10.37,2013-04-03 20:03:00,
2013-04-03 15:08:00,48.7,26.6,30.21,NE,45,9.2,9.2,42,0.00,CLR,,0.00,WeatherDisplay:10.37,2013-04-03 20:08:00,
2013-04-03 15:13:00,48.8,26.7,30.21,NE,45,3.5,3.5,42,0.00,CLR,,0.00,WeatherDisplay:10.37,2013-04-03 20:13:00,
2013-04-03 15:18:00,49.1,26.4,30.21,NE,45,3.5,3.5,41,0.00,CLR,,0.00,WeatherDisplay:10.37,2013-04-03 20:18:00,
2013-04-03 15:23:00,49.2,26.5,30.21,NE,44,5.0,5.0,41,0.00,CLR,,0.00,WeatherDisplay:10.37,2013-04-03 20:23:00,
2013-04-03 15:28:00,49.0,26.9,30.20,NE,38,9.2,9.2,42,0.00,CLR,,0.00,WeatherDisplay:10.37,2013-04-03 20:28:00,
2013-04-03 15:33:00,48.9,26.8,30.20,NNE,29,3.5,3.5,42,0.00,CLR,,0.00,WeatherDisplay:10.37,2013-04-03 20:33:00,
2013-04-03 15:38:00,49.1,27.5,30.20,NNE,29,6.9,6.9,43,0.00,CLR,,0.00,WeatherDisplay:10.37,2013-04-03 20:38:00,
2013-04-03 15:43:00,49.5,27.3,30.20,NNE,29,4.6,4.6,42,0.00,CLR,,0.00,WeatherDisplay:10.37,2013-04-03 20:43:00,
2013-04-03 15:48:00,50.0,27.8,30.20,NNE,30,3.5,3.5,42,0.00,CLR,,0.00,WeatherDisplay:10.37,2013-04-03 20:48:00,
2013-04-03 15:53:00,50.1,26.7,30.20,NNE,29,3.5,3.5,40,0.00,CLR,,0.00,WeatherDisplay:10.37,2013-04-03 20:53:00,
2013-04-03 15:58:00,49.7,26.9,30.20,NNE,29,3.5,3.5,41,0.00,CLR,,0.00,WeatherDisplay:10.37,2013-04-03 20:58:00,
2013-04-03 16:03:00,49.4,27.2,30.19,NNE,30,5.8,5.8,42,0.00,CLR,,0.00,WeatherDisplay:10.37,2013-04-03 21:03:00,
2013-04-03 16:08:00,49.7,26.9,30.19,NNE,29,3.5,3.5,41,0.00,CLR,,0.00,WeatherDisplay:10.37,2013-04-03 21:08:00,
2013-04-03 16:13:00,49.6,27.4,30.19,NNE,29,3.5,3.5,42,0.00,CLR,,0.00,WeatherDisplay:10.37,2013-04-03 21:13:00,
2013-04-03 16:18:00,49.7,26.9,30.19,NNE,29,4.6,4.6,41,0.00,CLR,,0.00,WeatherDisplay:10.37,2013-04-03 21:18:00,
2013-04-03 16:23:00,49.5,27.3,30.19,NNE,29,6.0,6.0,42,0.00,CLR,,0.00,WeatherDisplay:10.37,2013-04-03 21:23:00,
2013-04-03 16:28:00,49.5,26.7,30.19,NNE,30,3.5,3.5,41,0.00,CLR,,0.00,WeatherDisplay:10.37,2013-04-03 21:28:00,
2013-04-03 16:33:00,49.5,27.9,30.19,NNE,30,4.6,4.6,43,0.00,CLR,,0.00,WeatherDisplay:10.37,2013-04-03 21:33:00,
2013-04-03 16:38:00,49.5,27.3,30.19,NNE,29,3.5,0.0,42,0.00,CLR,,0.00,WeatherDisplay:10.37,2013-04-03 21:38:00,
2013-04-03 16:43:00,49.5,27.9,30.19,NNE,30,2.3,2.3,43,0.00,CLR,,0.00,WeatherDisplay:10.37,2013-04-03 21:43:00,
2013-04-03 16:48:00,49.6,28.0,30.18,NNE,30,3.5,3.5,43,0.00,CLR,,0.00,WeatherDisplay:10.37,2013-04-03 21:48:00,
2013-04-03 16:53:00,49.6,27.4,30.18,NNE,29,3.5,3.6,42,0.00,CLR,,0.00,WeatherDisplay:10.37,2013-04-03 21:53:00,
2013-04-03 16:58:00,49.2,27.1,30.18,NNE,29,4.6,4.6,42,0.00,CLR,,0.00,WeatherDisplay:10.37,2013-04-03 21:58:00,
2013-04-03 17:03:00,49.1,27.5,30.18,NNE,29,5.8,5.8,43,0.00,CLR,,0.00,WeatherDisplay:10.37,2013-04-03 22:03:00,
2013-04-03 17:08:00,49.2,27.6,30.18,NNE,29,5.0,5.0,43,0.00,CLR,,0.00,WeatherDisplay:10.37,2013-04-03 22:08:00,
2013-04-03 17:13:00,49.2,27.6,30.18,NNE,29,5.8,5.8,43,0.00,CLR,,0.00,WeatherDisplay:10.37,2013-04-03 22:13:00,
2013-04-03 17:18:00,49.1,27.5,30.18,NNE,29,3.5,3.5,43,0.00,CLR,,0.00,WeatherDisplay:10.37,2013-04-03 22:18:00,
2013-04-03 17:23:00,49.0,27.5,30.18,NNE,30,5.8,5.8,43,0.00,CLR,,0.00,WeatherDisplay:10.37,2013-04-03 22:23:00,
2013-04-03 17:28:00,49.2,27.6,30.18,NNE,29,1.2,1.2,43,0.00,CLR,,0.00,WeatherDisplay:10.37,2013-04-03 22:28:00,
2013-04-03 17:33:00,49.3,27.7,30.18,NNE,30,3.5,3.5,43,0.00,CLR,,0.00,WeatherDisplay:10.37,2013-04-03 22:33:00,
2013-04-03 17:38:00,49.4,27.8,30.17,NNE,30,2.3,2.3,43,0.00,CLR,,0.00,WeatherDisplay:10.37,2013-04-03 22:38:00,
2013-04-03 17:43:00,49.4,27.8,30.17,NNE,29,3.5,3.5,43,0.00,CLR,,0.00,WeatherDisplay:10.37,2013-04-03 22:43:00,
2013-04-03 17:48:00,49.4,27.8,30.17,NNE,29,2.3,2.3,43,0.00,CLR,,0.00,WeatherDisplay:10.37,2013-04-03 22:48:00,
2013-04-03 17:53:00,49.3,27.7,30.17,NNE,30,6.0,6.0,43,0.00,CLR,,0.00,WeatherDisplay:10.37,2013-04-03 22:53:00,
2013-04-03 17:58:00,49.3,27.7,30.17,NNE,29,4.6,4.6,43,0.00,CLR,,0.00,WeatherDisplay:10.37,2013-04-03 22:58:00,
2013-04-03 18:03:00,49.2,27.6,30.16,NNE,29,4.6,4.6,43,0.00,CLR,,0.00,WeatherDisplay:10.37,2013-04-03 23:03:00,
2013-04-03 18:08:00,49.2,27.6,30.16,NNE,29,5.8,5.8,43,0.00,CLR,,0.00,WeatherDisplay:10.37,2013-04-03 23:08:00,
2013-04-03 18:13:00,49.2,27.6,30.16,NNE,30,4.6,4.6,43,0.00,CLR,,0.00,WeatherDisplay:10.37,2013-04-03 23:13:00,
2013-04-03 18:18:00,49.1,27.5,30.16,NNE,30,4.0,4.0,43,0.00,CLR,,0.00,WeatherDisplay:10.37,2013-04-03 23:18:00,
2013-04-03 18:23:00,49.1,27.5,30.16,NNE,30,1.2,1.2,43,0.00,CLR,,0.00,WeatherDisplay:10.37,2013-04-03 23:23:00,
2013-04-03 18:28:00,49.1,27.5,30.16,NNE,30,3.5,3.5,43,0.00,CLR,,0.00,WeatherDisplay:10.37,2013-04-03 23:28:00,
2013-04-03 18:33:00,49.1,27.5,30.16,NNE,30,3.5,3.5,43,0.00,CLR,,0.00,WeatherDisplay:10.37,2013-04-03 23:33:00,
2013-04-03 18:38:00,49.0,27.5,30.16,NNE,30,4.0,4.0,43,0.00,CLR,,0.00,WeatherDisplay:10.37,2013-04-03 23:38:00,
2013-04-03 18:43:00,48.9,27.4,30.16,NNE,29,5.0,5.0,43,0.00,CLR,,0.00,WeatherDisplay:10.37,2013-04-03 23:43:00,
2013-04-03 18:48:00,48.8,27.3,30.16,NNE,29,5.8,5.8,43,0.00,CLR,,0.00,WeatherDisplay:10.37,2013-04-03 23:48:00,
2013-04-03 18:53:00,48.7,26.6,30.16,NNE,30,4.6,4.6,42,0.00,CLR,,0.00,WeatherDisplay:10.37,2013-04-03 23:53:00,
2013-04-03 18:58:00,48.7,26.6,30.15,NNE,30,3.5,3.5,42,0.00,CLR,,0.00,WeatherDisplay:10.37,2013-04-03 23:58:00,
2013-04-03 19:03:00,48.6,25.9,30.15,NE,34,5.8,5.8,41,0.00,CLR,,0.00,WeatherDisplay:10.37,2013-04-04 00:03:00,
2013-04-03 19:08:00,48.5,26.4,30.16,NE,37,3.5,3.5,42,0.00,CLR,,0.00,WeatherDisplay:10.37,2013-04-04 00:08:00,
2013-04-03 19:13:00,48.4,25.8,30.16,NE,37,5.8,5.8,41,0.00,CLR,,0.00,WeatherDisplay:10.37,2013-04-04 00:13:00,
2013-04-03 19:18:00,48.3,26.2,30.16,NE,37,2.3,0.0,42,0.00,CLR,,0.00,WeatherDisplay:10.37,2013-04-04 00:18:00,
2013-04-03 19:24:00,48.2,25.6,30.16,NE,37,3.5,3.5,41,0.00,CLR,,0.00,WeatherDisplay:10.37,2013-04-04 00:24:00,
2013-04-03 19:29:00,48.1,25.5,30.16,NE,37,5.8,5.8,41,0.00,CLR,,0.00,WeatherDisplay:10.37,2013-04-04 00:29:00,
2013-04-03 19:34:00,48.0,25.4,30.16,NE,37,3.5,3.5,41,0.00,CLR,,0.00,WeatherDisplay:10.37,2013-04-04 00:34:00,
2013-04-03 19:40:00,47.9,25.3,30.16,NE,37,4.6,4.6,41,0.00,CLR,,0.00,WeatherDisplay:10.37,2013-04-04 00:40:00,
2013-04-03 19:45:00,47.8,25.2,30.16,NE,37,3.5,3.5,41,0.00,CLR,,0.00,WeatherDisplay:10.37,2013-04-04 00:45:00,
2013-04-03 19:50:00,47.7,24.5,30.16,NE,37,3.5,3.5,40,0.00,CLR,,0.00,WeatherDisplay:10.37,2013-04-04 00:50:00,
2013-04-03 19:55:00,47.6,24.4,30.16,NE,37,2.0,2.0,40,0.00,CLR,,0.00,WeatherDisplay:10.37,2013-04-04 00:55:00,
2013-04-03 20:00:00,47.5,23.7,30.16,NE,37,4.6,4.6,39,0.00,CLR,,0.00,WeatherDisplay:10.37,2013-04-04 01:00:00,
2013-04-03 20:05:00,47.4,23.0,30.16,NE,41,10.4,10.4,38,0.00,CLR,,0.00,WeatherDisplay:10.37,2013-04-04 01:05:00,
2013-04-03 20:10:00,47.3,22.9,30.16,NE,42,6.9,6.9,38,0.00,CLR,,0.00,WeatherDisplay:10.37,2013-04-04 01:10:00,
2013-04-03 20:15:00,47.2,22.9,30.16,NE,42,4.6,4.6,38,0.00,CLR,,0.00,WeatherDisplay:10.37,2013-04-04 01:15:00,
2013-04-03 20:20:00,47.1,22.8,30.16,NE,42,1.2,1.2,38,0.00,CLR,,0.00,WeatherDisplay:10.37,2013-04-04 01:20:00,
2013-04-03 20:25:00,47.0,22.7,30.16,NE,42,2.3,2.3,38,0.00,CLR,,0.00,WeatherDisplay:10.37,2013-04-04 01:25:00,
2013-04-03 20:30:00,46.9,22.6,30.16,NE,42,2.0,2.0,38,0.00,CLR,,0.00,WeatherDisplay:10.37,2013-04-04 01:30:00,
2013-04-03 20:35:00,46.8,23.1,30.16,NE,42,2.3,2.3,39,0.00,CLR,,0.00,WeatherDisplay:10.37,2013-04-04 01:35:00,
2013-04-03 20:40:00,46.7,23.0,30.16,NE,42,2.0,2.0,39,0.00,CLR,,0.00,WeatherDisplay:10.37,2013-04-04 01:40:00,
2013-04-03 20:45:00,46.5,22.2,30.16,NE,42,3.5,3.5,38,0.00,CLR,,0.00,WeatherDisplay:10.37,2013-04-04 01:45:00,
2013-04-03 20:50:00,46.5,22.2,30.16,NE,42,3.5,3.5,38,0.00,CLR,,0.00,WeatherDisplay:10.37,2013-04-04 01:50:00,
2013-04-03 20:55:00,46.4,22.1,30.16,NE,42,3.5,3.5,38,0.00,CLR,,0.00,WeatherDisplay:10.37,2013-04-04 01:55:00,
2013-04-03 21:00:00,46.3,21.4,30.16,NE,42,1.0,7.0,37,0.00,CLR,,0.00,WeatherDisplay:10.37,2013-04-04 02:00:00,
2013-04-03 21:05:00,46.2,21.3,30.16,NE,43,3.5,3.5,37,0.00,CLR,,0.00,WeatherDisplay:10.37,2013-04-04 02:05:00,
2013-04-03 21:10:00,46.1,21.9,30.16,NE,43,2.3,2.3,38,0.00,CLR,,0.00,WeatherDisplay:10.37,2013-04-04 02:10:00,
2013-04-03 21:15:00,46.1,21.9,30.16,NE,42,2.3,2.3,38,0.00,CLR,,0.00,WeatherDisplay:10.37,2013-04-04 02:15:00,
2013-04-03 21:20:00,46.0,21.8,30.16,NE,43,0.0,1.0,38,0.00,CLR,,0.00,WeatherDisplay:10.37,2013-04-04 02:20:00,
2013-04-03 21:25:00,45.9,21.7,30.16,NE,43,3.0,3.0,38,0.00,CLR,,0.00,WeatherDisplay:10.37,2013-04-04 02:25:00,
2013-04-03 21:30:00,45.8,21.6,30.16,NE,43,3.5,3.5,38,0.00,CLR,,0.00,WeatherDisplay:10.37,2013-04-04 02:30:00,
2013-04-03 21:35:00,45.8,21.6,30.17,NE,43,1.2,1.2,38,0.00,CLR,,0.00,WeatherDisplay:10.37,2013-04-04 02:35:00,
2013-04-03 21:40:00,45.7,21.5,30.17,NE,43,1.2,0.0,38,0.00,CLR,,0.00,WeatherDisplay:10.37,2013-04-04 02:40:00,
2013-04-03 21:45:00,45.7,21.5,30.17,NE,43,0.0,0.0,38,0.00,CLR,,0.00,WeatherDisplay:10.37,2013-04-04 02:45:00,
2013-04-03 21:50:00,45.6,22.0,30.17,NE,43,0.0,0.0,39,0.00,CLR,,0.00,WeatherDisplay:10.37,2013-04-04 02:50:00,
2013-04-03 21:55:00,45.5,21.9,30.17,NE,43,1.2,1.2,39,0.00,CLR,,0.00,WeatherDisplay:10.37,2013-04-04 02:55:00,
2013-04-03 22:00:00,45.5,21.9,30.17,NE,42,2.3,2.3,39,0.00,CLR,,0.00,WeatherDisplay:10.37,2013-04-04 03:00:00,
2013-04-03 22:05:00,45.4,21.9,30.17,NE,43,0.0,0.0,39,0.00,CLR,,0.00,WeatherDisplay:10.37,2013-04-04 03:05:00,
2013-04-03 22:10:00,45.4,21.9,30.17,NE,42,1.2,0.0,39,0.00,CLR,,0.00,WeatherDisplay:10.37,2013-04-04 03:10:00,
2013-04-03 22:15:00,45.4,22.5,30.17,NE,42,0.0,0.0,40,0.00,CLR,,0.00,WeatherDisplay:10.37,2013-04-04 03:15:00,
2013-04-03 22:20:00,45.3,21.8,30.17,NE,43,1.2,1.2,39,0.00,CLR,,0.00,WeatherDisplay:10.37,2013-04-04 03:20:00,
2013-04-03 22:25:00,45.2,22.3,30.17,NE,42,1.0,1.0,40,0.00,CLR,,0.00,WeatherDisplay:10.37,2013-04-04 03:25:00,
2013-04-03 22:30:00,45.1,22.2,30.17,NE,42,1.2,0.0,40,0.00,CLR,,0.00,WeatherDisplay:10.37,2013-04-04 03:30:00,
2013-04-03 22:35:00,45.0,22.1,30.17,NE,43,0.0,0.0,40,0.00,CLR,,0.00,WeatherDisplay:10.37,2013-04-04 03:35:00,
2013-04-03 22:40:00,45.0,22.1,30.17,NE,43,0.0,0.0,40,0.00,CLR,,0.00,WeatherDisplay:10.37,2013-04-04 03:40:00,
2013-04-03 22:45:00,44.8,21.9,30.17,NE,43,0.0,0.0,40,0.00,CLR,,0.00,WeatherDisplay:10.37,2013-04-04 03:45:00,
2013-04-03 22:51:00,44.7,22.4,30.17,NE,42,0.0,0.0,41,0.00,CLR,,0.00,WeatherDisplay:10.37,2013-04-04 03:51:00,
2013-04-03 22:56:00,44.5,22.2,30.17,NE,43,0.0,0.0,41,0.00,CLR,,0.00,WeatherDisplay:10.37,2013-04-04 03:56:00,
2013-04-03 23:00:00,44.3,22.1,30.17,NE,43,2.3,2.3,41,0.00,CLR,,0.00,WeatherDisplay:10.37,2013-04-04 04:00:00,
2013-04-03 23:05:00,44.3,22.1,30.17,NE,42,0.0,0.1,41,0.00,CLR,,0.00,WeatherDisplay:10.37,2013-04-04 04:05:00,
2013-04-03 23:10:00,44.1,21.9,30.17,NE,43,0.0,0.0,41,0.00,CLR,,0.00,WeatherDisplay:10.37,2013-04-04 04:10:00,
2013-04-03 23:15:00,44.0,21.8,30.16,NE,43,0.0,0.0,41,0.00,CLR,,0.00,WeatherDisplay:10.37,2013-04-04 04:15:00,
2013-04-03 23:20:00,43.8,22.2,30.16,NE,42,0.0,0.0,42,0.00,CLR,,0.00,WeatherDisplay:10.37,2013-04-04 04:20:00,
2013-04-03 23:25:00,43.7,22.1,30.16,NE,43,0.0,0.0,42,0.00,CLR,,0.00,WeatherDisplay:10.37,2013-04-04 04:25:00,
2013-04-03 23:30:00,43.5,21.9,30.16,NE,43,0.0,0.0,42,0.00,CLR,,0.00,WeatherDisplay:10.37,2013-04-04 04:30:00,
2013-04-03 23:35:00,43.4,21.8,30.16,NE,43,0.0,0.0,42,0.00,CLR,,0.00,WeatherDisplay:10.37,2013-04-04 04:35:00,
2013-04-03 23:40:00,43.3,21.7,30.16,NE,43,0.0,0.0,42,0.00,CLR,,0.00,WeatherDisplay:10.37,2013-04-04 04:40:00,
2013-04-03 23:45:00,43.2,21.6,30.16,NE,43,1.2,1.2,42,0.00,CLR,,0.00,WeatherDisplay:10.37,2013-04-04 04:45:00,
2013-04-03 23:50:00,43.1,21.5,30.16,NE,42,0.0,0.0,42,0.00,CLR,,0.00,WeatherDisplay:10.37,2013-04-04 04:50:00,
2013-04-03 23:55:00,43.0,22.0,30.16,NE,42,0.0,0.0,43,0.00,CLR,,0.00,WeatherDisplay:10.37,2013-04-04 04:55:00,